This is the latest recevied weather packets stored in our database for station/object EA1BVF-10. If no packets are shown the sender has not sent any weather packets the latest 10 day(s).
| Time | Temp. | Humidity | Pressure | Rain* | Wind** | Luminosity | Snow |
|---|---|---|---|---|---|---|---|
| 1787754502 | 11.67° C | 97% | 1025.5 hPa | - | - | - | - |
| 1787752702 | 11.67° C | 98% | 1025.8 hPa | - | - | - | - |
| 1787750902 | 11.67° C | 99% | 1026 hPa | - | - | - | - |
| 1787749105 | 11.67° C | 99% | 1026.3 hPa | - | - | - | - |
| 1787747302 | 11.67° C | 96% | 1026.2 hPa | - | - | - | - |
| 1787745502 | 11.67° C | 96% | 1026.3 hPa | - | - | - | - |
| 1787743701 | 12.22° C | 93% | 1026.3 hPa | - | - | - | - |
| 1787741901 | 12.22° C | 92% | 1027 hPa | - | - | - | - |
| 1787740101 | 12.22° C | 94% | 1027.2 hPa | - | - | - | - |
| 1787738301 | 12.22° C | 95% | 1027.7 hPa | - | - | - | - |
| 1787736504 | 12.22° C | 92% | 1027.6 hPa | - | - | - | - |
| 1787734702 | 12.22° C | 93% | 1028.1 hPa | - | - | - | - |
| 1787732896 | 12.22° C | 92% | 1027.8 hPa | - | - | - | - |
| 1787731096 | 12.22° C | 91% | 1028 hPa | - | - | - | - |
| 1787729296 | 11.67° C | 90% | 1027.7 hPa | - | - | - | - |
| 1787727496 | 11.67° C | 83% | 1027.9 hPa | - | - | - | - |
| 1787684794 | 13.33° C | 81% | 1031.9 hPa | - | - | - | - |
| 1787682988 | 13.33° C | 80% | 1031.8 hPa | - | - | - | - |
| 1787681185 | 13.33° C | 81% | 1031.8 hPa | - | - | - | - |
| 1787679388 | 13.33° C | 80% | 1031.6 hPa | - | - | - | - |
| 1787677587 | 13.33° C | 82% | 1032 hPa | - | - | - | - |
| 1787675787 | 13.33° C | 85% | 1032 hPa | - | - | - | - |
| 1787673983 | 13.33° C | 86% | 1032 hPa | - | - | - | - |
| 1787672183 | 13.33° C | 86% | 1031.9 hPa | - | - | - | - |
| 1787670383 | 13.33° C | 87% | 1031.7 hPa | - | - | - | - |
* Rain since midnight (hover to see other rain measurements)
** Current wind speed in m/s (hover to see current wind gust speed)